COSMOS 2251 DEB, 34637

Orbit data source: Space-Track

COSMOS 2251 DEB, 34637 is space debris in LEO originally from a launch on Wed, 16 Jun 1993 UTC launched from the Plesetsk Missile And Space Complex (PKMTR). The debris from Iridium 33, an American commercial communications satellite, has been tracked extensively since its accidental collision with the defunct Russian satellite Cosmos 2251 in 2009. This event, occurring at high speed in low Earth orbit (LEO), generated thousands of pieces of space debris, significantly increasing the risk of further collisions. The Iridium 33 debris cloud has impacted space traffic management and orbital debris mitigation strategies, making it a subject of ongoing study in space situational awareness.

Loading next visibility...
Identifier
34637, 1993-036XJ
Orbit
LEO
Country
Flag of CISCIS
Related business
Manufacturer
Unknown
Mission
Spacecraft
Bus & Motor
Unknown
Mass
Unknown
Launch date (UTC)
1993-06-16 (33 years ago)
Launch vehicle
Unknown
Launch site
Plesetsk Missile And Space Complex (PKMTR)
Object type
Payload
Rocket body
Debris
Shape & HBR
Unknown shape, 0.1 m
Radar Cross Section
Medium (>0.1 m² and <1 m²)

Expand to show TLE details & history
Last TLE update: 9 hours ago

TLE from 9 hours ago
0 COSMOS 2251 DEB
1 34637U 93036XJ  26175.21427660  .00002619  00000-0  52421-3 0  9998
2 34637  74.0483  91.6906 0049419 113.0152   8.8779 14.61557479913520
Epoch: 2026-06-24T05:08Z
TLE epoch observation values (Epoch: 2026-06-24T05:08:33.498Z)
Latitude
54.75345°
Longitude
-101.54628°
Altitude
662.35 km
Speed
7.55 km/s
True Right ascension
16h 31m 52s
True Declination
54° 35' 20"
Sunlit
Object was in daylight at epoch
Visualization orbit readout
Latitude
Unknown
Longitude
Unknown
Altitude
Unknown
Speed
Unknown
Apparent Right ascension
Unknown
Apparent Declination
Unknown
Sunlit
N/A
Visualization observer readout
Local Sidereal Time
01:46:57
Azimuth
Unknown
Elevation
Unknown
Doppler factor
Unknown
Orbital elements
Apogee altitude
720.653 km
Perigee altitude
650.835 km
Semi-major axis
7,063.881 km
Eccentricity
0.00494
Inclination
74.0483°
RAAN
91.6906°
Arg. of periapsis
113.0152°
True anomaly
8.96583°
Mean anomaly
8.8779°
Eccentric anomaly
8.92181°
Mean motion
3.65576 °/min
Orbital period
98.47 mins
BSTAR
0.00052421
Loading maneuver chart data...
Computing Atmospheric mass density...

Documentation

Showing up to 5 results
|